| time (UTC) | temp C | wind direction | speed KPH | gust KPH | rain 1hr cm | rain 24hr cm | rain mn cm | humidity % | barometer mb |
| 20260507110008 | 22 | 5 | 14.5 | 25.7 | 0.00 | 0.00 | 0.00 | 83 | 1012.4 |
| 20260507104512 | 22 | 5 | 11.3 | 24.1 | 0.00 | 0.00 | 0.00 | 83 | 1012.7 |
| 20260507103014 | 22 | 355 | 9.7 | 17.7 | 0.00 | 0.00 | 0.00 | 83 | 1013.3 |
| 20260507101518 | 22 | 11 | 9.7 | 19.3 | 0.00 | 0.00 | 0.00 | 83 | 1013.5 |
| 20260507100017 | 22 | 355 | 11.3 | 17.7 | 0.00 | 0.00 | 0.00 | 83 | 1013.2 |
| 20260507094525 | 22 | 11 | 9.7 | 19.3 | 0.00 | 0.00 | 0.00 | 83 | 1013.0 |
| 20260507093102 | 22 | 355 | 9.7 | 20.9 | 0.00 | 0.00 | 0.00 | 83 | 1012.8 |
| 20260507093002 | 22 | 360 | 11.3 | 20.9 | 0.00 | 0.00 | 0.00 | 83 | 1012.8 |
| 20260507091506 | 22 | 13 | 9.7 | 20.9 | 0.00 | 0.00 | 0.00 | 84 | 1012.6 |
| 20260507090006 | 22 | 19 | 8.0 | 19.3 | 0.00 | 0.00 | 0.00 | 84 | 1012.7 |
| 20260507084512 | 22 | 346 | 9.7 | 20.9 | 0.00 | 0.00 | 0.00 | 85 | 1012.8 |
| 20260507083010 | 22 | 5 | 9.7 | 20.9 | 0.00 | 0.00 | 0.00 | 85 | 1012.7 |
| 20260507081513 | 23 | 5 | 11.3 | 20.9 | 0.00 | 0.00 | 0.00 | 85 | 1012.6 |
| 20260507080019 | 23 | 11 | 11.3 | 22.5 | 0.00 | 0.00 | 0.00 | 85 | 1012.5 |
| 20260507074521 | 23 | 5 | 9.7 | 22.5 | 0.00 | 0.00 | 0.00 | 85 | 1012.4 |
| 20260507073023 | 24 | 351 | 12.9 | 27.4 | 0.00 | 0.00 | 0.00 | 86 | 1012.5 |
| 20260507071527 | 26 | 98 | 3.2 | 9.7 | 0.00 | 0.00 | 0.00 | 89 | 1012.3 |
| 20260507070029 | 26 | 98 | 3.2 | 9.7 | 0.00 | 0.00 | 0.00 | 89 | 1012.3 |
| 20260507064528 | 26 | 98 | 3.2 | 6.4 | 0.00 | 0.00 | 0.00 | 89 | 1012.3 |
| 20260507063033 | 26 | 98 | 3.2 | 6.4 | 0.00 | 0.00 | 0.00 | 89 | 1012.3 |
| 20260507061541 | 26 | 98 | 1.6 | 6.4 | 0.00 | 0.00 | 0.00 | 89 | 1012.3 |
| 20260507060041 | 26 | 98 | 3.2 | 6.4 | 0.00 | 0.00 | 0.00 | 89 | 1012.4 |
| 20260507054542 | 26 | 98 | 1.6 | 4.8 | 0.00 | 0.00 | 0.00 | 89 | 1012.5 |
| 20260507053045 | 26 | 98 | 1.6 | 9.7 | 0.00 | 0.00 | 0.00 | 89 | 1012.5 |
| 20260507051547 | 26 | 98 | 1.6 | 6.4 | 0.00 | 0.00 | 0.00 | 89 | 1012.4 |
| 20260507050053 | 26 | 98 | 3.2 | 9.7 | 0.00 | 0.00 | 0.00 | 89 | 1012.2 |
| 20260507044556 | 26 | 98 | 3.2 | 9.7 | 0.00 | 0.00 | 0.00 | 89 | 1012.3 |
| 20260507043103 | 25 | 99 | 3.2 | 6.4 | 0.00 | 0.00 | 0.00 | 88 | 1012.1 |
| 20260507043002 | 25 | 98 | 1.6 | 4.8 | 0.00 | 0.00 | 0.00 | 88 | 1012.2 |
| 20260507041516 | 25 | 99 | 1.6 | 4.8 | 0.00 | 0.00 | 0.00 | 88 | 1012.0 |
| 20260507040008 | 26 | 99 | 3.2 | 9.7 | 0.00 | 0.00 | 0.00 | 88 | 1011.8 |
| 20260507034513 | 26 | 99 | 4.8 | 9.7 | 0.00 | 0.00 | 0.00 | 88 | 1011.7 |
| 20260507033014 | 26 | 99 | 3.2 | 11.3 | 0.00 | 0.00 | 0.00 | 88 | 1011.5 |
| 20260507031514 | 26 | 99 | 4.8 | 11.3 | 0.00 | 0.00 | 0.00 | 88 | 1011.4 |
| 20260507030016 | 26 | 100 | 4.8 | 14.5 | 0.00 | 0.00 | 0.00 | 88 | 1011.2 |
| 20260507024522 | 26 | 100 | 4.8 | 12.9 | 0.00 | 0.00 | 0.00 | 88 | 1010.9 |
| 20260507023021 | 26 | 101 | 6.4 | 14.5 | 0.00 | 0.00 | 0.00 | 88 | 1010.7 |
| 20260507021525 | 26 | 95 | 6.4 | 12.9 | 0.00 | 0.00 | 0.00 | 87 | 1010.5 |
| 20260507020034 | 26 | 94 | 3.2 | 12.9 | 0.00 | 0.00 | 0.00 | 87 | 1010.5 |
| 20260507014556 | 26 | 93 | 3.2 | 11.3 | 0.00 | 0.00 | 0.00 | 87 | 1010.3 |
| 20260507013108 | 26 | 96 | 3.2 | 9.7 | 0.00 | 0.00 | 0.00 | 87 | 1010.1 |
| 20260507011556 | 26 | 96 | 6.4 | 12.9 | 0.00 | 0.00 | 0.00 | 86 | 1009.8 |
| 20260507010054 | 26 | 95 | 6.4 | 11.3 | 0.00 | 0.00 | 0.00 | 86 | 1009.4 |
| 20260507010003 | 26 | 95 | 6.4 | 11.3 | 0.00 | 0.00 | 0.00 | 86 | 1009.4 |
| 20260507004550 | 26 | 94 | 4.8 | 12.9 | 0.00 | 0.00 | 0.00 | 86 | 1009.3 |
| 20260507003056 | 26 | 94 | 9.7 | 14.5 | 0.00 | 0.00 | 0.00 | 85 | 1009.2 |
| 20260507001620 | 26 | 93 | 6.4 | 12.9 | 0.00 | 0.00 | 0.00 | 84 | 1009.0 |
| 20260507001502 | 26 | 93 | 4.8 | 11.3 | 0.00 | 0.00 | 0.00 | 85 | 1009.0 |
| 20260507000101 | 26 | 98 | 4.8 | 12.9 | 0.00 | 0.00 | 0.00 | 84 | 1009.0 |
| 20260507000005 | 27 | 99 | 6.4 | 16.1 | 0.00 | 0.00 | 0.00 | 85 | 1008.9 |
| 20260506234504 | 26 | 105 | 9.7 | 17.7 | 0.00 | 0.00 | 0.00 | 84 | 1008.7 |
| 20260506233008 | 27 | 92 | 11.3 | 17.7 | 0.00 | 0.00 | 0.00 | 84 | 1008.7 |
| 20260506231514 | 27 | 102 | 6.4 | 14.5 | 0.00 | 0.00 | 0.00 | 84 | 1008.6 |
| 20260506230017 | 27 | 96 | 6.4 | 14.5 | 0.00 | 0.00 | 0.00 | 84 | 1008.5 |
| 20260506224510 | 27 | 102 | 9.7 | 14.5 | 0.00 | 0.00 | 0.00 | 84 | 1008.6 |
| 20260506223105 | 27 | 98 | 9.7 | 17.7 | 0.00 | 0.00 | 0.00 | 84 | 1008.5 |
| 20260506221507 | 27 | 101 | 8.0 | 14.5 | 0.00 | 0.00 | 0.00 | 83 | 1008.5 |
| 20260506220008 | 27 | 102 | 6.4 | 16.1 | 0.00 | 0.00 | 0.00 | 83 | 1008.5 |
| 20260506214509 | 27 | 104 | 9.7 | 16.1 | 0.00 | 0.00 | 0.00 | 82 | 1008.5 |
| 20260506213014 | 27 | 101 | 8.0 | 16.1 | 0.00 | 0.00 | 0.00 | 83 | 1008.5 |
| 20260506211517 | 27 | 96 | 11.3 | 19.3 | 0.00 | 0.00 | 0.00 | 84 | 1008.5 |
| 20260506210021 | 27 | 109 | 8.0 | 16.1 | 0.00 | 0.00 | 0.00 | 84 | 1008.7 |
| 20260506204527 | 27 | 101 | 6.4 | 14.5 | 0.00 | 0.00 | 0.00 | 83 | 1008.9 |
| 20260506203042 | 27 | 98 | 4.8 | 11.3 | 0.00 | 0.00 | 0.00 | 83 | 1009.0 |
| 20260506201539 | 27 | 96 | 6.4 | 14.5 | 0.00 | 0.00 | 0.00 | 82 | 1009.2 |
| 20260506200120 | 27 | 101 | 6.4 | 12.9 | 0.00 | 0.00 | 0.00 | 83 | 1009.2 |
| 20260506194543 | 27 | 111 | 4.8 | 14.5 | 0.00 | 0.00 | 0.00 | 84 | 1009.5 |
| 20260506193055 | 27 | 97 | 8.0 | 14.5 | 0.00 | 0.00 | 0.00 | 84 | 1009.8 |
| 20260506191505 | 27 | 105 | 4.8 | 12.9 | 0.00 | 0.00 | 0.00 | 84 | 1010.0 |
| 20260506190007 | 27 | 105 | 9.7 | 16.1 | 0.00 | 0.00 | 0.00 | 83 | 1010.1 |
| 20260506184518 | 27 | 115 | 9.7 | 17.7 | 0.00 | 0.00 | 0.00 | 83 | 1010.1 |
| 20260506183023 | 27 | 119 | 8.0 | 16.1 | 0.00 | 0.00 | 0.00 | 83 | 1010.3 |
| 20260506181531 | 27 | 116 | 11.3 | 17.7 | 0.00 | 0.00 | 0.00 | 83 | 1010.3 |
| 20260506180034 | 27 | 130 | 9.7 | 16.1 | 0.00 | 0.00 | 0.00 | 82 | 1010.4 |
| 20260506174531 | 27 | 114 | 8.0 | 16.1 | 0.00 | 0.00 | 0.00 | 81 | 1010.4 |
| 20260506173032 | 27 | 126 | 8.0 | 17.7 | 0.00 | 0.00 | 0.00 | 81 | 1010.3 |
| 20260506171548 | 28 | 138 | 6.4 | 20.9 | 0.00 | 0.00 | 0.00 | 81 | 1010.1 |
| 20260506170037 | 27 | 144 | 6.4 | 16.1 | 0.00 | 0.00 | 0.00 | 82 | 1010.2 |
| 20260506164539 | 27 | 146 | 6.4 | 19.3 | 0.00 | 0.00 | 0.00 | 84 | 1010.1 |
| 20260506163048 | 26 | 140 | 9.7 | 22.5 | 0.00 | 0.00 | 0.00 | 84 | 1010.2 |
| 20260506161556 | 26 | 140 | 8.0 | 19.3 | 0.00 | 0.00 | 0.00 | 84 | 1010.1 |
| 20260506160104 | 26 | 147 | 11.3 | 20.9 | 0.00 | 0.00 | 0.00 | 85 | 1010.0 |
| 20260506154557 | 26 | 142 | 9.7 | 20.9 | 0.00 | 0.00 | 0.00 | 85 | 1009.7 |
| 20260506153058 | 26 | 161 | 11.3 | 20.9 | 0.00 | 0.00 | 0.00 | 87 | 1009.6 |
| 20260506151508 | 26 | 146 | 14.5 | 24.1 | 0.00 | 0.00 | 0.00 | 88 | 1009.6 |
| 20260506150008 | 25 | 153 | 9.7 | 19.3 | 0.00 | 0.00 | 0.00 | 88 | 1009.5 |
| 20260506144512 | 25 | 145 | 11.3 | 19.3 | 0.00 | 0.00 | 0.00 | 87 | 1009.5 |
| 20260506143020 | 26 | 146 | 11.3 | 20.9 | 0.00 | 0.00 | 0.00 | 87 | 1009.5 |
| 20260506141522 | 26 | 140 | 14.5 | 19.3 | 0.00 | 0.00 | 0.00 | 86 | 1009.6 |
| 20260506140011 | 26 | 146 | 11.3 | 25.7 | 0.00 | 0.00 | 0.00 | 86 | 1009.6 |
| 20260506134526 | 26 | 144 | 12.9 | 22.5 | 0.00 | 0.00 | 0.00 | 86 | 1009.4 |
| 20260506133018 | 26 | 144 | 11.3 | 17.7 | 0.00 | 0.00 | 0.00 | 87 | 1009.6 |
| 20260506131526 | 26 | 148 | 9.7 | 17.7 | 0.00 | 0.00 | 0.00 | 87 | 1009.6 |
| 20260506130024 | 26 | 144 | 9.7 | 19.3 | 0.00 | 0.00 | 0.00 | 87 | 1009.4 |
| 20260506124528 | 25 | 146 | 8.0 | 19.3 | 0.00 | 0.00 | 0.00 | 87 | 1009.1 |
| 20260506123028 | 25 | 143 | 6.4 | 14.5 | 0.00 | 0.00 | 0.00 | 87 | 1009.0 |
| 20260506121530 | 25 | 140 | 4.8 | 11.3 | 0.00 | 0.00 | 0.00 | 87 | 1008.9 |
| 20260506120032 | 25 | 142 | 6.4 | 14.5 | 0.00 | 0.00 | 0.00 | 87 | 1008.8 |
| 20260506114543 | 25 | 143 | 6.4 | 14.5 | 0.00 | 0.00 | 0.00 | 87 | 1008.6 |
| 20260506113039 | 25 | 142 | 4.8 | 16.1 | 0.00 | 0.00 | 0.00 | 87 | 1008.6 |
| 20260506111547 | 25 | 146 | 6.4 | 12.9 | 0.00 | 0.00 | 0.00 | 87 | 1008.6 |